Time,TemperatureF,DewpointF,PressureIn,WindDirection,WindDirectionDegrees,WindSpeedMPH,WindSpeedGustMPH,Humidity,HourlyPrecipIn,Conditions,Clouds,dailyrainin,SoftwareType,DateUTC
2013-09-09 20:20:00,33.1,33.1,30.17,North,0,0.0,0.0,100,0.00,,---,0.01,VWS V14.01,2013-09-10 02:20:00,
2013-09-09 20:21:00,79.7,46.4,29.96,SSE,158,3.1,4.0,31,0.00,,---,3.77,VWS V14.01,2013-09-10 02:21:00,
2013-09-09 20:26:00,79.4,47.0,29.96,South,180,4.0,4.0,32,0.00,,---,3.77,VWS V14.01,2013-09-10 02:26:00,
2013-09-09 20:31:00,79.2,46.8,29.96,SE,135,1.8,2.2,32,0.00,,---,3.77,VWS V14.01,2013-09-10 02:31:00,
2013-09-09 20:36:00,79.0,47.5,29.96,South,180,4.3,4.3,33,0.00,,---,3.77,VWS V14.01,2013-09-10 02:36:00,
2013-09-09 20:41:00,78.7,48.0,29.97,South,180,4.7,4.7,34,0.00,,---,3.77,VWS V14.01,2013-09-10 02:41:00,
2013-09-09 20:46:00,78.3,48.4,29.97,SSE,158,3.4,3.4,35,0.00,,---,3.77,VWS V14.01,2013-09-10 02:46:00,
2013-09-09 20:51:00,78.1,49.0,29.98,ESE,112,2.2,2.2,36,0.00,,---,3.77,VWS V14.01,2013-09-10 02:51:00,
2013-09-09 20:56:00,77.8,49.5,29.98,SE,135,3.8,3.8,37,0.00,,---,3.77,VWS V14.01,2013-09-10 02:56:00,
2013-09-09 21:01:00,77.4,49.8,29.98,SSE,158,2.9,2.9,38,0.00,,---,3.77,VWS V14.01,2013-09-10 03:01:00,
2013-09-09 21:06:00,77.4,50.5,29.98,SSE,158,1.6,1.6,39,0.00,,---,3.77,VWS V14.01,2013-09-10 03:06:00,
2013-09-09 21:11:00,77.0,50.2,29.99,SE,135,2.2,2.2,39,0.00,,---,3.77,VWS V14.01,2013-09-10 03:11:00,
2013-09-09 21:16:00,77.0,50.9,29.99,SSW,202,1.6,1.6,40,0.00,,---,3.77,VWS V14.01,2013-09-10 03:16:00,
2013-09-09 21:21:00,76.9,50.8,29.99,SE,135,3.6,3.6,40,0.00,,---,0.00,VWS V14.01,2013-09-10 03:21:00,
2013-09-09 21:26:00,76.9,50.8,29.99,SSE,158,0.4,0.4,40,0.00,,---,3.77,VWS V14.01,2013-09-10 03:26:00,
2013-09-09 21:31:00,76.9,50.8,30.00,SSE,158,0.7,0.7,40,0.00,,---,3.77,VWS V14.01,2013-09-10 03:31:00,
2013-09-09 21:36:00,76.7,50.6,30.00,SSE,158,1.1,1.1,40,0.00,,---,3.77,VWS V14.01,2013-09-10 03:36:00,
2013-09-09 21:41:00,76.7,50.6,30.00,SSW,202,0.9,0.9,40,0.00,,---,3.77,VWS V14.01,2013-09-10 03:41:00,
2013-09-09 21:46:00,76.7,50.6,30.00,SW,225,0.7,0.7,40,0.00,,---,3.77,VWS V14.01,2013-09-10 03:46:00,
2013-09-09 21:51:00,76.7,51.2,30.00,SW,225,1.3,1.3,41,0.00,,---,3.77,VWS V14.01,2013-09-10 03:51:00,
2013-09-09 21:56:00,76.3,50.9,30.00,WSW,248,0.4,0.4,41,0.00,,---,3.77,VWS V14.01,2013-09-10 03:56:00,
2013-09-09 22:01:00,76.1,50.7,30.00,South,180,1.1,1.1,41,0.00,,---,3.77,VWS V14.01,2013-09-10 04:01:00,
2013-09-09 22:06:00,76.3,51.5,30.01,WSW,248,2.5,2.5,42,0.00,,---,3.77,VWS V14.01,2013-09-10 04:06:00,
2013-09-09 22:11:00,76.1,52.0,30.01,SW,225,2.7,2.7,43,0.00,,---,3.77,VWS V14.01,2013-09-10 04:11:00,
2013-09-09 22:16:00,76.1,51.4,30.02,SW,225,6.3,6.3,42,0.00,,---,3.77,VWS V14.01,2013-09-10 04:16:00,
2013-09-09 22:21:00,76.0,51.9,30.02,SW,225,5.1,5.1,43,0.00,,---,3.77,VWS V14.01,2013-09-10 04:21:00,
2013-09-09 22:26:00,75.2,52.4,30.03,SSW,202,6.5,6.5,45,0.00,,---,3.77,VWS V14.01,2013-09-10 04:26:00,
2013-09-09 22:31:00,74.3,52.8,30.03,South,180,3.4,3.4,47,0.00,,---,3.77,VWS V14.01,2013-09-10 04:31:00,
2013-09-09 22:36:00,73.8,53.5,30.03,SSW,202,4.9,4.9,49,0.00,,---,3.77,VWS V14.01,2013-09-10 04:36:00,
2013-09-09 22:41:00,72.9,53.7,30.04,SSW,202,3.1,3.1,51,0.00,,---,3.77,VWS V14.01,2013-09-10 04:41:00,
2013-09-09 22:46:00,72.7,53.5,30.03,South,180,3.4,3.4,51,0.00,,---,3.77,VWS V14.01,2013-09-10 04:46:00,
2013-09-09 22:51:00,72.4,53.8,30.04,SSE,158,3.4,3.4,52,0.00,,---,3.77,VWS V14.01,2013-09-10 04:51:00,
2013-09-09 22:56:00,72.2,53.6,30.04,SSE,158,4.7,4.7,52,0.00,,---,3.77,VWS V14.01,2013-09-10 04:56:00,
2013-09-09 23:01:00,71.8,53.2,30.04,SE,135,4.7,4.7,52,0.00,,---,3.77,VWS V14.01,2013-09-10 05:01:00,
2013-09-09 23:06:00,71.6,53.1,30.04,SSW,202,5.8,5.8,52,0.00,,---,3.77,VWS V14.01,2013-09-10 05:06:00,
2013-09-09 23:11:00,71.8,53.2,30.04,SSE,158,3.8,3.8,52,0.00,,---,3.77,VWS V14.01,2013-09-10 05:11:00,
2013-09-09 23:16:00,71.6,53.6,30.04,SE,135,2.0,2.0,53,0.00,,---,3.77,VWS V14.01,2013-09-10 05:16:00,
2013-09-09 23:21:00,71.5,54.0,30.04,South,180,3.8,3.8,54,0.00,,---,3.77,VWS V14.01,2013-09-10 05:21:00,
2013-09-09 23:26:00,71.3,53.8,30.04,SE,135,4.7,4.7,54,0.00,,---,3.77,VWS V14.01,2013-09-10 05:26:00,
2013-09-09 23:31:00,71.3,53.8,30.04,South,180,4.7,4.7,54,0.00,,---,3.77,VWS V14.01,2013-09-10 05:31:00,
2013-09-09 23:36:00,71.1,54.1,30.04,SW,225,2.5,2.5,55,0.00,,---,3.77,VWS V14.01,2013-09-10 05:36:00,
2013-09-09 23:41:00,70.9,54.0,30.04,SSE,158,3.4,3.4,55,0.00,,---,3.77,VWS V14.01,2013-09-10 05:41:00,
2013-09-09 23:46:00,70.7,54.2,30.04,South,180,1.6,1.6,56,0.00,,---,3.77,VWS V14.01,2013-09-10 05:46:00,
2013-09-09 23:51:00,70.7,54.2,30.04,SSE,158,2.0,2.0,56,0.00,,---,3.77,VWS V14.01,2013-09-10 05:51:00,
2013-09-09 23:56:00,70.6,55.1,30.04,SSE,158,2.5,2.5,58,0.00,,---,3.77,VWS V14.01,2013-09-10 05:56:00,